| time (UTC) | temp F | wind direction | speed knots | gust knots | rain 1hr in | rain 24hr in | rain mn in | humidity % | barometer mb |
| 20260509164519 | 80 | 253 | 3.5 | 7.0 | 0.00 | 0.02 | 0.02 | 74 | 1011.4 |
| 20260509163014 | 79 | 183 | 2.6 | 8.7 | 0.00 | 0.02 | 0.02 | 78 | 1011.4 |
| 20260509161512 | 78 | 213 | 2.6 | 7.0 | 0.00 | 0.02 | 0.02 | 81 | 1011.4 |
| 20260509160012 | 77 | 285 | 1.7 | 5.2 | 0.00 | 0.02 | 0.02 | 85 | 1011.3 |
| 20260509154513 | 75 | 248 | 1.7 | 6.1 | 0.00 | 0.02 | 0.02 | 92 | 1011.5 |
| 20260509153105 | 73 | 179 | 2.6 | 7.0 | 0.00 | 0.02 | 0.02 | 96 | 1011.7 |
| 20260509151608 | 72 | 180 | 3.5 | 8.7 | 0.00 | 0.02 | 0.02 | 96 | 1011.8 |
| 20260509150056 | 72 | 165 | 3.5 | 6.1 | 0.00 | 0.02 | 0.02 | 96 | 1011.8 |
| 20260509144554 | 71 | 167 | 2.6 | 5.2 | 0.00 | 0.02 | 0.02 | 96 | 1011.3 |
| 20260509143054 | 71 | 210 | 2.6 | 6.1 | 0.00 | 0.02 | 0.02 | 96 | 1011.2 |
| 20260509141553 | 71 | 139 | 4.3 | 8.7 | 0.00 | 0.02 | 0.02 | 96 | 1011.0 |
| 20260509140052 | 71 | 139 | 1.7 | 4.3 | 0.00 | 0.02 | 0.02 | 96 | 1011.0 |
| 20260509134551 | 71 | 336 | 0.0 | 3.5 | 0.00 | 0.02 | 0.02 | 96 | 1011.2 |
| 20260509133050 | 71 | 329 | 0.0 | 2.6 | 0.00 | 0.02 | 0.02 | 96 | 1011.5 |
| 20260509131551 | 71 | 54 | 0.0 | 3.5 | 0.00 | 0.02 | 0.02 | 96 | 1011.5 |
| 20260509130059 | 71 | 316 | 1.7 | 4.3 | 0.00 | 0.02 | 0.02 | 96 | 1010.9 |
| 20260509124549 | 70 | 37 | 1.7 | 4.3 | 0.01 | 0.02 | 0.02 | 96 | 1010.9 |
| 20260509123051 | 70 | 322 | 2.6 | 5.2 | 0.01 | 0.02 | 0.02 | 96 | 1010.9 |
| 20260509121547 | 70 | 75 | 0.0 | 1.7 | 0.01 | 0.02 | 0.02 | 96 | 1010.9 |
| 20260509120055 | 70 | 18 | 0.9 | 3.5 | 0.01 | 0.02 | 0.02 | 96 | 1011.2 |
| 20260509114547 | 70 | 338 | 0.9 | 4.3 | 0.00 | 0.01 | 0.01 | 96 | 1011.3 |
| 20260509113046 | 70 | 58 | 1.7 | 4.3 | 0.00 | 0.01 | 0.01 | 96 | 1011.7 |
| 20260509111545 | 70 | 79 | 1.7 | 7.0 | 0.00 | 0.01 | 0.01 | 96 | 1011.8 |
| 20260509110044 | 70 | 53 | 3.5 | 7.0 | 0.00 | 0.01 | 0.01 | 96 | 1011.8 |
| 20260509104544 | 71 | 33 | 2.6 | 6.1 | 0.00 | 0.01 | 0.01 | 96 | 1012.0 |
| 20260509103042 | 71 | 22 | 0.9 | 3.5 | 0.00 | 0.01 | 0.01 | 96 | 1011.8 |
| 20260509101540 | 71 | 91 | 0.9 | 2.6 | 0.00 | 0.01 | 0.01 | 96 | 1011.3 |
| 20260509100038 | 71 | 94 | 0.0 | 2.6 | 0.01 | 0.01 | 0.01 | 96 | 1011.0 |
| 20260509094537 | 70 | 94 | 0.9 | 2.6 | 0.01 | 0.01 | 0.01 | 96 | 1010.6 |
| 20260509093037 | 70 | 97 | 0.9 | 2.6 | 0.01 | 0.01 | 0.01 | 96 | 1010.8 |
| 20260509091536 | 70 | 62 | 0.0 | 0.9 | 0.01 | 0.01 | 0.01 | 96 | 1010.6 |
| 20260509090035 | 70 | 63 | 0.0 | 1.7 | 0.00 | 0.00 | 0.00 | 95 | 1010.5 |
| 20260509084537 | 70 | 86 | 0.9 | 3.5 | 0.00 | 0.00 | 0.00 | 95 | 1010.8 |
| 20260509083038 | 70 | 53 | 0.9 | 3.5 | 0.00 | 0.00 | 0.00 | 95 | 1011.0 |
| 20260509081537 | 71 | 57 | 0.9 | 2.6 | 0.00 | 0.00 | 0.00 | 95 | 1010.9 |
| 20260509080039 | 71 | 127 | 0.9 | 1.7 | 0.00 | 0.00 | 0.00 | 95 | 1010.9 |
| 20260509074532 | 71 | 131 | 0.0 | 2.6 | 0.00 | 0.00 | 0.00 | 94 | 1010.8 |
| 20260509073031 | 71 | 127 | 1.7 | 4.3 | 0.00 | 0.00 | 0.00 | 94 | 1010.7 |
| 20260509071530 | 71 | 128 | 0.9 | 4.3 | 0.00 | 0.00 | 0.00 | 94 | 1010.9 |
| 20260509070030 | 71 | 193 | 0.9 | 3.5 | 0.00 | 0.00 | 0.00 | 94 | 1011.1 |
| 20260509064528 | 71 | 234 | 0.9 | 6.1 | 0.00 | 0.00 | 0.00 | 94 | 1011.1 |
| 20260509063026 | 71 | 153 | 2.6 | 7.8 | 0.00 | 0.00 | 0.00 | 93 | 1010.5 |
| 20260509061526 | 71 | 155 | 5.2 | 10.4 | 0.00 | 0.00 | 0.00 | 93 | 1010.7 |
| 20260509060027 | 71 | 283 | 5.2 | 11.3 | 0.00 | 0.00 | 0.00 | 93 | 1010.8 |
| 20260509054523 | 71 | 153 | 5.2 | 12.2 | 0.00 | 0.00 | 0.00 | 92 | 1010.6 |
| 20260509053030 | 71 | 186 | 5.2 | 9.6 | 0.00 | 0.00 | 0.00 | 92 | 1010.7 |
| 20260509051519 | 71 | 179 | 4.3 | 10.4 | 0.00 | 0.00 | 0.00 | 92 | 1010.6 |
| 20260509050019 | 71 | 153 | 3.5 | 7.0 | 0.00 | 0.00 | 0.00 | 92 | 1010.4 |
| 20260509044516 | 71 | 166 | 2.6 | 6.1 | 0.00 | 0.00 | 0.00 | 91 | 1010.3 |
| 20260509043015 | 71 | 154 | 1.7 | 6.1 | 0.00 | 0.00 | 0.00 | 91 | 1010.4 |
| 20260509041515 | 71 | 150 | 2.6 | 7.0 | 0.00 | 0.00 | 0.00 | 90 | 1010.5 |
| 20260509040013 | 72 | 192 | 1.7 | 5.2 | 0.00 | 0.00 | 0.00 | 89 | 1010.9 |
| 20260509034512 | 72 | 182 | 0.9 | 4.3 | 0.00 | 0.00 | 0.00 | 88 | 1010.9 |
| 20260509033012 | 72 | 134 | 1.7 | 3.5 | 0.00 | 0.00 | 0.00 | 88 | 1010.9 |
| 20260509031520 | 72 | 144 | 0.9 | 2.6 | 0.00 | 0.00 | 0.00 | 88 | 1010.7 |
| 20260509030014 | 72 | 132 | 3.5 | 5.2 | 0.00 | 0.00 | 0.00 | 88 | 1010.3 |
| 20260509024511 | 72 | 148 | 2.6 | 5.2 | 0.00 | 0.00 | 0.00 | 87 | 1010.3 |
| 20260509023016 | 72 | 157 | 1.7 | 4.3 | 0.00 | 0.00 | 0.00 | 87 | 1010.3 |
| 20260509021509 | 72 | 160 | 0.9 | 3.5 | 0.00 | 0.00 | 0.00 | 87 | 1010.2 |
| 20260509020011 | 72 | 136 | 1.7 | 5.2 | 0.00 | 0.00 | 0.00 | 86 | 1009.7 |
| 20260509014507 | 73 | 141 | 1.7 | 6.1 | 0.00 | 0.00 | 0.00 | 85 | 1009.4 |
| 20260509013007 | 74 | 128 | 3.5 | 6.1 | 0.00 | 0.00 | 0.00 | 84 | 1009.4 |
| 20260509011606 | 74 | 137 | 0.9 | 3.5 | 0.00 | 0.00 | 0.00 | 82 | 1009.5 |
| 20260509010005 | 75 | 147 | 2.6 | 7.0 | 0.00 | 0.00 | 0.00 | 81 | 1009.5 |
| 20260509004512 | 75 | 138 | 2.6 | 6.1 | 0.00 | 0.00 | 0.00 | 80 | 1009.3 |
| 20260509003006 | 75 | 165 | 1.7 | 6.1 | 0.00 | 0.00 | 0.00 | 79 | 1009.3 |
| 20260509001507 | 76 | 146 | 1.7 | 4.3 | 0.00 | 0.00 | 0.00 | 78 | 1009.4 |
| 20260509000002 | 76 | 191 | 2.6 | 7.8 | 0.00 | 0.00 | 0.00 | 78 | 1009.4 |
| 20260508234501 | 76 | 139 | 3.5 | 7.0 | 0.00 | 0.00 | 0.00 | 77 | 1009.4 |
| 20260508233104 | 76 | 169 | 3.5 | 8.7 | 0.00 | 0.00 | 0.00 | 76 | 1009.4 |
| 20260508231559 | 77 | 141 | 2.6 | 9.6 | 0.00 | 0.00 | 0.00 | 75 | 1009.4 |
| 20260508230106 | 77 | 142 | 1.7 | 6.1 | 0.00 | 0.00 | 0.00 | 76 | 1009.5 |
| 20260508224557 | 77 | 159 | 5.2 | 9.6 | 0.00 | 0.00 | 0.00 | 75 | 1009.6 |
| 20260508223055 | 77 | 136 | 4.3 | 7.8 | 0.00 | 0.00 | 0.00 | 74 | 1009.6 |
| 20260508221553 | 77 | 169 | 4.3 | 7.8 | 0.00 | 0.00 | 0.00 | 74 | 1009.6 |
| 20260508220053 | 78 | 131 | 2.6 | 7.8 | 0.00 | 0.00 | 0.00 | 73 | 1009.7 |
| 20260508214551 | 79 | 206 | 3.5 | 8.7 | 0.00 | 0.00 | 0.00 | 72 | 1009.8 |
| 20260508213050 | 78 | 184 | 4.3 | 7.8 | 0.00 | 0.00 | 0.00 | 72 | 1009.9 |
| 20260508211546 | 79 | 181 | 2.6 | 7.8 | 0.00 | 0.00 | 0.00 | 72 | 1010.1 |
| 20260508210045 | 78 | 143 | 5.2 | 9.6 | 0.00 | 0.00 | 0.00 | 73 | 1010.4 |
| 20260508204544 | 77 | 130 | 4.3 | 9.6 | 0.00 | 0.00 | 0.00 | 74 | 1010.6 |
| 20260508203042 | 77 | 133 | 2.6 | 7.0 | 0.00 | 0.00 | 0.00 | 74 | 1010.7 |
| 20260508201543 | 77 | 120 | 3.5 | 7.8 | 0.00 | 0.00 | 0.00 | 72 | 1010.9 |
| 20260508200041 | 78 | 129 | 2.6 | 7.8 | 0.00 | 0.00 | 0.00 | 71 | 1011.0 |
| 20260508194610 | 78 | 117 | 3.5 | 9.6 | 0.00 | 0.00 | 0.00 | 72 | 1011.0 |
| 20260508193035 | 77 | 131 | 2.6 | 8.7 | 0.00 | 0.00 | 0.00 | 71 | 1011.4 |
| 20260508191533 | 76 | 127 | 3.5 | 8.7 | 0.00 | 0.00 | 0.00 | 73 | 1011.6 |
| 20260508190030 | 76 | 115 | 3.5 | 7.0 | 0.00 | 0.00 | 0.00 | 74 | 1011.7 |
| 20260508184533 | 76 | 188 | 2.6 | 7.0 | 0.00 | 0.00 | 0.00 | 72 | 1011.9 |
| 20260508183027 | 76 | 134 | 3.5 | 7.8 | 0.00 | 0.00 | 0.00 | 71 | 1012.1 |
| 20260508181535 | 76 | 121 | 3.5 | 7.0 | 0.00 | 0.00 | 0.00 | 72 | 1012.4 |
| 20260508180025 | 75 | 130 | 3.5 | 8.7 | 0.00 | 0.00 | 0.00 | 73 | 1012.6 |
| 20260508174522 | 76 | 92 | 3.5 | 7.8 | 0.00 | 0.00 | 0.00 | 71 | 1012.7 |
| 20260508173034 | 77 | 190 | 1.7 | 4.3 | 0.00 | 0.00 | 0.00 | 71 | 1012.8 |
| 20260508171525 | 77 | 123 | 0.0 | 1.7 | 0.00 | 0.00 | 0.00 | 73 | 1013.0 |
| 20260508170017 | 76 | 264 | 0.9 | 3.5 | 0.00 | 0.00 | 0.00 | 73 | 1013.1 |